Preview of NWS' New Version of Forecast
This preview is not operational and should not be used for support decisions.

Regional Weather Roundup (RWR)

Issued by Gray - Portland, ME (GYX)

                            
000
ASUS41 KGYX 180605
RWRGYX
WEATHER ROUNDUP FOR MAINE AND NEW HAMPSHIRE
NATIONAL WEATHER SERVICE GRAY ME
200 AM EDT SUN AUG 18 2019

MEZ002-005-006-010-012-015-018-020-021-024-026-027-029-180700-
MAINE
  
CITY           SKY/WX    TMP DP  RH WIND       PRES   REMARKS
PORTLAND       LGT RAIN  67  65  93 CALM      30.01S FOG              
6HR MIN TEMP:  66; 6HR MAX TEMP:  68; 6HR PCP:  0.07;                

SANFORD        CLOUDY    67  67 100 CALM      30.01S                  
BAR HARBOR     FOG       61  61 100 CALM      30.03F VSB 3/4          
WISCASSET      CLOUDY    65  64  97 CALM      30.02S FOG              
6HR MIN TEMP:  64; 6HR MAX TEMP:  66;                                

ROCKLAND       FOG       62  61  96 CALM      30.01F VSB 1/4          
FRYEBURG       CLOUDY    66  65  96 CALM      30.01F                  
6HR MIN TEMP:  66; 6HR MAX TEMP:  68; 6HR PCP:  0.71;                

LEWISTONAUBURN LGT RAIN  65  65 100 S3        30.01F VSB 1            
AUGUSTA        FOG       64  64 100 S3        30.02S VSB 3/4          
6HR MIN TEMP:  64; 6HR MAX TEMP:  66; 6HR PCP:  0.03;                

WATERVILLE     LGT RAIN  64  64 100 CALM      29.99F                  
BANGOR         LGT RAIN  65  63  93 S7        30.02F                  
6HR MIN TEMP:  64; 6HR MAX TEMP:  67; 6HR PCP: TRACE;                

GREENVILLE       N/A     62  61  96 CALM      30.02S                  
6HR MIN TEMP:  61; 6HR MAX TEMP:  63; 6HR PCP:  0.12;                

MILLINOCKET    LGT RAIN  64  62  93 CALM      30.04R                  
6HR MIN TEMP:  64; 6HR MAX TEMP:  66; 6HR PCP:  0.01;                

HOULTON        CLOUDY    64  61  90 VRB3      30.01S                  
6HR MIN TEMP:  64; 6HR MAX TEMP:  65; 6HR PCP: TRACE;                

PRESQUE ISLE   CLOUDY    65  62  90 S5        30.01F                  
6HR MIN TEMP:  63; 6HR MAX TEMP:  66;                                

FRENCHVILLE    LGT RAIN  63  61  93 S5        30.01S                  
6HR MIN TEMP:  62; 6HR MAX TEMP:  63; 6HR PCP:  0.01;                

CARIBOU        CLOUDY    65  62  90 S3        30.00S                  
6HR MIN TEMP:  64; 6HR MAX TEMP:  67;                                

$$

NHZ002-005-008-009-011-012-014-180700-
NEW HAMPSHIRE
  
CITY           SKY/WX    TMP DP  RH WIND       PRES   REMARKS
PORTSMOUTH     CLOUDY    67  67  98 CALM      29.99S                  
ROCHESTER      CLOUDY    67  65  93 CALM      30.00F                  
6HR MIN TEMP:  67; 6HR MAX TEMP:  68; 6HR PCP:  0.28;                

NASHUA         FAIR      67  67 100 NW5       30.01S                  
MANCHESTER     MOCLDY    69  67  93 CALM      29.99S                  
6HR MIN TEMP:  69; 6HR MAX TEMP:  74; 6HR PCP:  0.14;                

CONCORD        MOCLDY    67  66  97 CALM      30.01S                  
6HR MIN TEMP:  66; 6HR MAX TEMP:  70; 6HR PCP:  1.03;                

LACONIA        CLOUDY    66  66 100 SW3       30.02F                  
PLYMOUTH       CLOUDY    65  64  95 CALM      30.02R                  
BERLIN         MOCLDY    66  63  90 CALM      30.01S                  
6HR MIN TEMP:  65; 6HR MAX TEMP:  69; 6HR PCP:  0.19;                

WHITEFIELD     CLOUDY    64  63  96 CALM      30.01S                  
6HR MIN TEMP:  63; 6HR MAX TEMP:  68; 6HR PCP:  0.25;                

JAFFREY        FOG       66  64  93 S3        30.04S VSB 1            
6HR MIN TEMP:  65; 6HR MAX TEMP:  74; 6HR PCP:  0.35;                

KEENE          FOG       65  65 100 CALM      30.03S VSB 1/2          
LEBANON        CLOUDY    66  62  87 S5        30.01R                  
6HR MIN TEMP:  66; 6HR MAX TEMP:  69; 6HR PCP:  0.05;                

MT WASHINGTON  FOG       50  50 100 W26         N/A  VSB 3/16         
6HR MIN TEMP:  50; 6HR MAX TEMP:  54; 6HR PCP:  0.23;                

$$

VTZ005-007-008-180700-
VERMONT
  
CITY           SKY/WX    TMP DP  RH WIND       PRES   REMARKS
ST JOHNSBURY     N/A     64  64 100 MISG      29.99R                  
MONTPELIER     CLOUDY    65  64  97 N5        30.05R                  
BURLINGTON     FAIR      67  63  87 S7        29.97F                  
$$

MAZ007-012-024-CTZ003-RIZ002-NYZ038-NYZ072-180700-
SOUTHERN NEW ENGLAND AND NY
  
CITY           SKY/WX    TMP DP  RH WIND       PRES   REMARKS
BOSTON         RAIN      69  66  90 SE3       30.00F FOG              
WORCESTER      MOCLDY    68  68 100 W5        30.03S                  
NANTUCKET      FOG       68  67  96 CALM      29.99F VSB 1/4          
PROVIDENCE     FOG       71  71 100 S5        30.00F VSB 1/2          
HARTFORD       MOCLDY    68  66  93 CALM      30.00S                  
ALBANY         CLOUDY    68  65  90 S3        30.01S                  
NEW YORK CITY  CLOUDY    76  73  91 NE9       29.98S                  
$$

ANZ081-ANZ082-ANZ150-NHZ014-MEZ023>029-180700-
COASTAL MARINE OBSERVATIONS
  
STATION/POSITION TIME  TEMP    WIND        PRES    WAVE
                       AIR SEA DIR/SP/G            HT/PER
                 (UTC) (F)     (DEG/KT/KT) (MB)    (FT/S)
MATINICUS ROCK   0550   61                 1015.4F
ISLE OF SHOALS   0500   66     220/  9/ 10 1015.4R
JEFFREYS LEDGE   0538      68                N/A     3/ 8
CASHES LEDGE BUO 0550   65 65  130/  6/  8 1016.0F   3/ 7
GEORGES BANK BUO 0550   71 70  120/  6/  8 1016.6F   4/ 6
$$

.............KEY..............
   WCI - WIND CHILL
   TC  - TEMPERATURE IN CELSIUS
   VSB - VISIBILITY IN MILES
   HX  - HEAT INDEX
   FAIR- INDICATES FEW OR NO CLOUDS BELOW 12,000 FT, WITH NO 
         SIGNIFICANT WEATHER AND/OR OBSTRUCTIONS TO VISIBILITY.